contact:dominique.lefevre@mio.osupytheas.fr, maurice.libes@osupytheas.fr, didier.mallarino@osupytheas.fr
Project:EMSO http://www.emso-fr.org/EMSO-France
Depth: 2436.0 m
Title:EMSO Ligure Ouest : Data MII capteur AQUADOPP
Date,Latitude,Longitude,X_East,Y_North,Z_Up,Amplitude_X,Amplitude_Y,Amplitude_Z,Batterie,SoundSpeed,Heading,Pitch,Roll,Pressure,TIS,Speed,Direction
, degrees North, degrees East, m.s-1, m.s-1,m.s-1, 1, 1, 1, Volt, m.s-1, degree, degree, degree, dbar, degree_C, m.s-1, degree
2022-03-27T00:01:03,42.805,6.029,0.056,-0.048,-0.001,100.0,101.0,100.0,13.4,1505.2,330.8,-0.8,1.8,2470.719,13.28,0.073,130.6
2022-03-27T00:04:03,42.805,6.029,0.018,-0.035,-0.009,101.0,101.0,100.0,13.4,1505.2,327.7,-0.7,1.8,2470.749,13.28,0.039,152.8
2022-03-27T00:07:03,42.805,6.029,0.047,-0.02,0.011,101.0,100.0,100.0,13.4,1505.2,326.0,-0.7,1.8,2470.745,13.28,0.051,113.0
2022-03-27T00:10:03,42.805,6.029,0.025,-0.054,-0.002,101.0,101.0,99.0,13.4,1505.2,328.2,-0.8,1.8,2470.721,13.28,0.059,155.2
2022-03-27T00:13:03,42.805,6.029,0.052,-0.049,-0.011,100.0,100.0,100.0,13.4,1505.2,329.2,-0.7,1.8,2470.728,13.28,0.071,133.3
2022-03-27T00:16:03,42.805,6.029,0.042,-0.048,-0.009,101.0,99.0,100.0,13.3,1505.2,332.2,-0.8,1.8,2470.718,13.28,0.063,138.8
2022-03-27T00:19:03,42.805,6.029,0.038,-0.025,0.003,102.0,101.0,100.0,13.4,1505.2,327.4,-0.8,1.8,2470.724,13.28,0.045,123.3
2022-03-27T00:22:03,42.805,6.029,0.022,-0.03,0.008,100.0,102.0,99.0,13.4,1505.2,329.9,-0.8,1.9,2470.738,13.28,0.037,143.7
2022-03-27T00:25:03,42.805,6.029,0.028,-0.021,0.033,100.0,100.0,100.0,13.4,1505.2,328.1,-0.7,1.8,2470.739,13.28,0.035,126.9
2022-03-27T00:28:03,42.805,6.029,0.03,-0.029,-0.012,100.0,101.0,100.0,13.4,1505.2,322.6,-0.8,1.8,2470.722,13.28,0.041,134.0
2022-03-27T00:31:03,42.805,6.029,0.035,-0.04,-0.025,100.0,100.0,100.0,13.4,1505.2,324.1,-0.7,1.8,2470.734,13.28,0.053,138.8
2022-03-27T00:34:03,42.805,6.029,0.041,-0.016,0.018,101.0,100.0,100.0,13.4,1505.2,330.6,-0.8,1.9,2470.746,13.28,0.044,111.3
2022-03-27T00:37:03,42.805,6.029,0.032,-0.033,-0.033,100.0,101.0,100.0,13.4,1505.2,329.2,-0.7,1.8,2470.72,13.28,0.045,135.9
2022-03-27T00:40:03,42.805,6.029,0.057,-0.041,0.007,100.0,101.0,100.0,13.4,1505.2,326.3,-0.8,1.8,2470.738,13.28,0.07,125.7
2022-03-27T00:43:03,42.805,6.029,0.02,-0.029,-0.025,100.0,100.0,100.0,13.3,1505.2,326.6,-0.8,1.9,2470.751,13.28,0.035,145.4
2022-03-27T00:46:03,42.805,6.029,0.059,-0.037,-0.004,100.0,100.0,100.0,13.3,1505.2,330.8,-0.7,1.8,2470.8,13.28,0.069,122.1
2022-03-27T00:49:03,42.805,6.029,0.032,-0.033,0.013,100.0,101.0,100.0,13.4,1505.2,325.9,-0.8,1.8,2470.705,13.28,0.045,135.9
2022-03-27T00:52:03,42.805,6.029,0.042,-0.042,-0.009,99.0,99.0,101.0,13.3,1505.2,329.5,-0.7,1.8,2470.77,13.28,0.059,135.0
2022-03-27T00:55:03,42.805,6.029,0.039,-0.044,-0.017,101.0,100.0,99.0,13.4,1505.2,329.2,-0.8,1.8,2470.776,13.28,0.058,138.4
2022-03-27T00:58:03,42.805,6.029,0.047,-0.026,-0.014,98.0,99.0,101.0,13.4,1505.2,328.9,-0.7,1.8,2470.747,13.28,0.053,118.9
2022-03-27T01:04:03,42.805,6.029,0.017,-0.025,-0.018,102.0,101.0,100.0,13.4,1505.2,327.5,-0.8,1.8,2470.764,13.28,0.03,145.8
2022-03-27T01:07:03,42.805,6.029,0.035,-0.006,0.012,100.0,100.0,100.0,13.3,1505.2,324.8,-0.8,1.8,2470.799,13.28,0.035,99.7
2022-03-27T01:10:03,42.805,6.029,0.005,-0.025,0.014,101.0,101.0,100.0,13.4,1505.2,331.5,-0.8,1.8,2470.819,13.28,0.025,168.7
2022-03-27T01:13:03,42.805,6.029,0.054,-0.032,-0.007,98.0,102.0,100.0,13.4,1505.2,326.4,-0.7,1.8,2470.793,13.28,0.062,120.7
2022-03-27T01:16:03,42.805,6.029,0.04,-0.062,-0.044,100.0,99.0,100.0,13.3,1505.2,324.4,-0.7,1.8,2470.772,13.28,0.073,147.2
2022-03-27T01:19:03,42.805,6.029,0.01,-0.032,0.007,101.0,100.0,100.0,13.4,1505.2,330.8,-0.8,1.8,2470.77,13.28,0.033,162.6
2022-03-27T01:22:03,42.805,6.029,0.048,-0.033,0.0,101.0,100.0,100.0,13.4,1505.2,331.0,-0.7,1.8,2470.734,13.28,0.058,124.5
2022-03-27T01:25:03,42.805,6.029,0.05,-0.048,-0.043,100.0,99.0,101.0,13.4,1505.2,328.6,-0.8,1.8,2470.761,13.28,0.069,133.8
2022-03-27T01:28:03,42.805,6.029,0.034,-0.044,-0.018,101.0,101.0,99.0,13.4,1505.2,331.7,-0.8,1.8,2470.793,13.28,0.055,142.3
2022-03-27T01:31:03,42.805,6.029,0.045,-0.034,-0.026,100.0,100.0,100.0,13.4,1505.2,326.7,-0.7,1.8,2470.785,13.28,0.056,127.1
2022-03-27T01:34:03,42.805,6.029,0.047,-0.02,0.002,101.0,102.0,99.0,13.4,1505.2,325.6,-0.7,1.8,2470.787,13.28,0.051,113.0
2022-03-27T01:37:03,42.805,6.029,0.035,-0.034,-0.011,101.0,100.0,99.0,13.4,1505.2,330.1,-0.8,1.8,2470.789,13.28,0.048,134.2
2022-03-27T01:40:03,42.805,6.029,0.019,-0.015,0.004,101.0,102.0,100.0,13.4,1505.2,326.3,-0.8,1.8,2470.822,13.28,0.024,128.3
2022-03-27T01:43:03,42.805,6.029,0.083,-0.016,0.023,100.0,102.0,100.0,13.4,1505.2,322.6,-0.7,1.8,2470.769,13.28,0.084,100.9
2022-03-27T01:46:03,42.805,6.029,0.057,-0.028,-0.009,102.0,99.0,100.0,13.4,1505.2,325.1,-0.8,1.8,2470.812,13.28,0.063,116.2
2022-03-27T01:49:03,42.805,6.029,0.052,-0.033,-0.024,99.0,99.0,101.0,13.4,1505.2,323.7,-0.7,1.8,2470.772,13.28,0.061,122.4
2022-03-27T01:52:03,42.805,6.029,0.029,-0.056,-0.018,100.0,99.0,101.0,13.4,1505.2,328.6,-0.7,1.8,2470.798,13.28,0.063,152.6
2022-03-27T01:55:03,42.805,6.029,0.041,-0.027,0.004,102.0,100.0,99.0,13.4,1505.2,328.5,-0.8,1.8,2470.809,13.28,0.049,123.4
2022-03-27T01:58:03,42.805,6.029,0.054,-0.057,0.005,100.0,100.0,100.0,13.4,1505.2,326.6,-0.8,1.8,2470.812,13.28,0.078,136.5
2022-03-27T02:04:03,42.805,6.029,0.024,-0.044,-0.021,100.0,101.0,100.0,13.3,1505.2,331.3,-0.7,1.8,2470.855,13.28,0.05,151.4
2022-03-27T02:07:03,42.805,6.029,0.061,-0.044,-0.024,103.0,100.0,99.0,13.3,1505.2,326.0,-0.7,1.8,2470.799,13.28,0.075,125.8
2022-03-27T02:10:03,42.805,6.029,0.021,-0.034,0.007,101.0,99.0,100.0,13.4,1505.2,330.2,-0.8,1.8,2470.808,13.28,0.039,148.3
2022-03-27T02:13:03,42.805,6.029,0.049,-0.022,0.005,98.0,102.0,100.0,13.3,1505.2,329.0,-0.8,1.8,2470.841,13.28,0.053,114.2
2022-03-27T02:16:03,42.805,6.029,0.044,-0.039,-0.003,100.0,101.0,100.0,13.4,1505.2,328.3,-0.7,1.8,2470.808,13.28,0.058,131.6
2022-03-27T02:19:03,42.805,6.029,0.031,-0.008,0.023,103.0,100.0,99.0,13.4,1505.2,328.3,-0.7,1.8,2470.739,13.28,0.032,104.5
2022-03-27T02:22:03,42.805,6.029,0.028,-0.039,-0.026,100.0,101.0,101.0,13.4,1505.2,324.0,-0.8,1.8,2470.807,13.28,0.048,144.3
2022-03-27T02:25:03,42.805,6.029,0.038,-0.047,-0.007,100.0,100.0,100.0,13.3,1505.2,325.6,-0.8,1.8,2470.771,13.28,0.06,141.0
2022-03-27T02:28:03,42.805,6.029,0.039,-0.02,0.016,100.0,102.0,98.0,13.4,1505.2,326.9,-0.7,1.8,2470.813,13.28,0.043,117.1
2022-03-27T02:31:03,42.805,6.029,0.044,-0.031,0.039,99.0,100.0,100.0,13.4,1505.2,329.0,-0.8,1.8,2470.815,13.28,0.053,125.2
2022-03-27T02:34:03,42.805,6.029,0.051,-0.023,-0.025,100.0,100.0,100.0,13.3,1505.2,323.2,-0.7,1.8,2470.792,13.28,0.055,114.3
2022-03-27T02:37:03,42.805,6.029,0.043,-0.068,-0.036,100.0,99.0,101.0,13.4,1505.2,332.0,-0.7,1.8,2470.794,13.28,0.08,147.7
2022-03-27T02:40:03,42.805,6.029,0.025,-0.031,-0.027,100.0,100.0,100.0,13.4,1505.2,327.3,-0.8,1.8,2470.798,13.28,0.039,141.1
2022-03-27T02:43:03,42.805,6.029,0.03,-0.039,-0.007,100.0,100.0,99.0,13.4,1505.2,331.3,-0.8,1.8,2470.809,13.28,0.049,142.4
2022-03-27T02:46:03,42.805,6.029,0.056,-0.058,-0.019,100.0,101.0,99.0,13.4,1505.2,326.5,-0.8,1.8,2470.796,13.28,0.08,136.0
2022-03-27T02:49:03,42.805,6.029,0.024,-0.045,-0.037,100.0,102.0,100.0,13.3,1505.2,330.2,-0.7,1.9,2470.834,13.28,0.051,151.9
2022-03-27T02:52:03,42.805,6.029,0.007,-0.01,-0.013,100.0,100.0,100.0,13.4,1505.2,323.2,-0.7,1.8,2470.814,13.28,0.012,145.0
2022-03-27T02:55:03,42.805,6.029,0.021,-0.023,-0.022,100.0,99.0,100.0,13.4,1505.2,326.6,-0.8,1.9,2470.814,13.28,0.031,137.6
2022-03-27T02:58:03,42.805,6.029,0.026,-0.024,-0.013,100.0,101.0,100.0,13.4,1505.2,328.7,-0.8,1.8,2470.809,13.28,0.035,132.7
2022-03-27T03:04:03,42.805,6.029,0.064,-0.048,-0.023,100.0,102.0,100.0,13.3,1505.2,327.6,-0.8,1.8,2470.84,13.28,0.079,126.9
2022-03-27T03:07:03,42.805,6.029,0.035,-0.015,-0.018,99.0,102.0,100.0,13.4,1505.2,327.9,-0.7,1.8,2470.844,13.28,0.038,113.2
2022-03-27T03:10:03,42.805,6.029,0.04,-0.035,0.034,102.0,99.0,99.0,13.3,1505.2,332.6,-0.7,1.8,2470.819,13.28,0.053,131.2
2022-03-27T03:13:03,42.805,6.029,0.026,-0.033,-0.033,99.0,100.0,100.0,13.4,1505.2,332.2,-0.7,1.9,2470.822,13.28,0.042,141.8
2022-03-27T03:16:03,42.805,6.029,0.048,-0.043,-0.006,99.0,100.0,100.0,13.4,1505.2,332.7,-0.8,1.8,2470.861,13.28,0.064,131.9
2022-03-27T03:19:03,42.805,6.029,0.041,-0.027,0.017,100.0,100.0,100.0,13.3,1505.2,330.6,-0.8,1.8,2470.801,13.28,0.049,123.4
2022-03-27T03:22:03,42.805,6.029,0.006,-0.009,-0.028,102.0,101.0,100.0,13.4,1505.2,326.2,-0.7,1.8,2470.813,13.28,0.01,146.3
2022-03-27T03:25:03,42.805,6.029,0.022,-0.033,-0.009,100.0,99.0,101.0,13.4,1505.2,324.1,-0.7,1.8,2470.815,13.28,0.039,146.3
2022-03-27T03:28:03,42.805,6.029,0.01,-0.022,-0.028,101.0,101.0,101.0,13.4,1505.2,327.5,-0.8,1.8,2470.844,13.28,0.024,155.6
2022-03-27T03:31:03,42.805,6.029,0.023,-0.002,0.023,102.0,99.0,100.0,13.3,1505.2,323.9,-0.7,1.8,2470.849,13.28,0.023,95.0
2022-03-27T03:34:03,42.805,6.029,0.026,-0.037,0.002,100.0,102.0,99.0,13.4,1505.2,323.7,-0.8,1.8,2470.822,13.28,0.045,144.9
2022-03-27T03:37:03,42.805,6.029,0.03,-0.034,0.013,100.0,100.0,100.0,13.4,1505.2,326.2,-0.7,1.8,2470.799,13.28,0.045,138.6
2022-03-27T03:40:03,42.805,6.029,0.007,-0.017,0.016,100.0,101.0,101.0,13.4,1505.2,326.1,-0.7,1.8,2470.809,13.28,0.018,157.6
2022-03-27T03:43:03,42.805,6.029,0.021,-0.013,0.007,100.0,101.0,100.0,13.4,1505.2,325.8,-0.8,1.8,2470.823,13.28,0.024,121.8
2022-03-27T03:46:03,42.805,6.029,0.02,-0.032,-0.013,102.0,98.0,101.0,13.4,1505.2,325.5,-0.7,1.8,2470.786,13.28,0.037,148.0
2022-03-27T03:49:03,42.805,6.029,0.021,-0.006,0.02,102.0,100.0,99.0,13.3,1505.2,327.9,-0.8,1.8,2470.793,13.28,0.021,105.9
2022-03-27T03:52:03,42.805,6.029,0.025,-0.019,-0.036,100.0,102.0,100.0,13.3,1505.2,327.6,-0.7,1.9,2470.827,13.28,0.031,127.2
2022-03-27T03:55:03,42.805,6.029,0.013,-0.017,0.012,102.0,99.0,99.0,13.3,1505.2,323.9,-0.8,1.8,2470.794,13.28,0.021,142.6
2022-03-27T03:58:03,42.805,6.029,0.016,-0.027,-0.001,100.0,100.0,100.0,13.4,1505.2,327.0,-0.8,1.8,2470.83,13.28,0.031,149.3
2022-03-27T04:04:03,42.805,6.029,0.029,-0.022,-0.002,100.0,101.0,100.0,13.4,1505.2,322.3,-0.8,1.8,2470.852,13.28,0.036,127.2
2022-03-27T04:07:03,42.805,6.029,0.011,-0.032,-0.005,101.0,101.0,100.0,13.4,1505.2,329.6,-0.7,1.8,2470.805,13.28,0.033,161.0
2022-03-27T04:10:03,42.805,6.029,0.037,-0.04,-0.002,102.0,101.0,98.0,13.4,1505.2,328.8,-0.7,1.8,2470.805,13.28,0.054,137.2
2022-03-27T04:13:03,42.805,6.029,0.034,0.004,0.002,101.0,98.0,100.0,13.3,1505.2,330.8,-0.7,1.8,2470.844,13.28,0.034,83.3
2022-03-27T04:16:03,42.805,6.029,0.04,-0.038,0.012,100.0,101.0,100.0,13.4,1505.2,325.5,-0.7,1.8,2470.8,13.28,0.055,133.5
2022-03-27T04:19:03,42.805,6.029,0.022,-0.019,-0.009,101.0,100.0,100.0,13.4,1505.2,327.8,-0.8,1.8,2470.814,13.28,0.029,130.8
2022-03-27T04:22:03,42.805,6.029,0.062,-0.037,0.004,101.0,100.0,101.0,13.4,1505.2,326.0,-0.8,1.8,2470.865,13.28,0.072,120.8
2022-03-27T04:25:03,42.805,6.029,0.051,-0.03,0.009,102.0,101.0,100.0,13.4,1505.2,325.0,-0.7,1.8,2470.812,13.28,0.059,120.5
2022-03-27T04:28:03,42.805,6.029,0.027,-0.039,-0.026,100.0,101.0,100.0,13.4,1505.2,326.9,-0.8,1.8,2470.839,13.28,0.047,145.3
2022-03-27T04:31:03,42.805,6.029,0.041,-0.062,-0.034,100.0,102.0,100.0,13.3,1505.2,326.6,-0.8,1.8,2470.841,13.28,0.074,146.5
2022-03-27T04:34:03,42.805,6.029,0.032,0.0,0.014,102.0,102.0,98.0,13.4,1505.2,331.9,-0.8,1.8,2470.83,13.28,0.032,90.0
2022-03-27T04:37:03,42.805,6.029,0.028,-0.049,0.007,100.0,101.0,101.0,13.3,1505.2,332.7,-0.7,1.8,2470.817,13.28,0.056,150.3
2022-03-27T04:40:03,42.805,6.029,0.029,-0.033,0.014,102.0,101.0,100.0,13.4,1505.2,331.2,-0.8,1.8,2470.782,13.28,0.043,138.7
2022-03-27T04:43:03,42.805,6.029,0.043,-0.041,0.003,100.0,102.0,100.0,13.4,1505.2,328.8,-0.8,1.8,2470.817,13.28,0.059,133.6
2022-03-27T04:46:03,42.805,6.029,0.047,-0.049,0.0,103.0,100.0,100.0,13.4,1505.2,332.9,-0.7,1.8,2470.822,13.28,0.067,136.2
2022-03-27T04:49:03,42.805,6.029,0.046,-0.029,0.007,101.0,101.0,100.0,13.4,1505.2,323.4,-0.8,1.8,2470.815,13.28,0.054,122.2
2022-03-27T04:52:03,42.805,6.029,0.045,-0.023,0.005,100.0,101.0,100.0,13.4,1505.2,327.8,-0.7,1.8,2470.805,13.28,0.05,117.1
2022-03-27T04:55:03,42.805,6.029,0.031,-0.025,-0.014,102.0,101.0,101.0,13.4,1505.2,325.8,-0.8,1.8,2470.794,13.28,0.039,128.9
2022-03-27T04:58:03,42.805,6.029,0.03,-0.012,-0.009,98.0,100.0,101.0,13.3,1505.2,328.7,-0.8,1.8,2470.786,13.28,0.032,111.8
2022-03-27T05:04:03,42.805,6.029,0.034,-0.042,-0.027,100.0,100.0,100.0,13.4,1505.2,329.5,-0.8,1.8,2470.876,13.28,0.054,141.0
2022-03-27T05:07:03,42.805,6.029,0.04,-0.023,0.026,101.0,101.0,99.0,13.4,1505.2,323.6,-0.8,1.8,2470.83,13.28,0.046,119.9
2022-03-27T05:10:03,42.805,6.029,0.044,-0.013,0.016,102.0,100.0,101.0,13.4,1505.2,325.3,-0.8,1.8,2470.809,13.28,0.045,106.5
2022-03-27T05:13:03,42.805,6.029,0.056,-0.037,0.011,101.0,101.0,101.0,13.4,1505.2,329.2,-0.8,1.8,2470.842,13.28,0.067,123.5
2022-03-27T05:16:03,42.805,6.029,0.031,-0.041,-0.005,101.0,101.0,100.0,13.4,1505.2,329.2,-0.8,1.8,2470.853,13.28,0.051,142.9
2022-03-27T05:19:03,42.805,6.029,0.029,-0.043,-0.001,99.0,102.0,101.0,13.3,1505.2,332.7,-0.8,1.9,2470.817,13.28,0.051,146.0
2022-03-27T05:22:03,42.805,6.029,0.028,-0.045,-0.023,100.0,101.0,100.0,13.4,1505.2,331.1,-0.8,1.8,2470.827,13.28,0.053,148.1
2022-03-27T05:25:03,42.805,6.029,0.022,-0.046,-0.002,102.0,101.0,100.0,13.3,1505.2,327.4,-0.7,1.8,2470.829,13.28,0.05,154.4
2022-03-27T05:28:03,42.805,6.029,0.033,-0.035,0.007,100.0,101.0,101.0,13.4,1505.2,324.8,-0.7,1.8,2470.806,13.28,0.048,136.7
2022-03-27T05:31:03,42.805,6.029,0.019,-0.021,-0.008,101.0,101.0,100.0,13.3,1505.2,326.4,-0.7,1.8,2470.781,13.28,0.028,137.9
2022-03-27T05:34:03,42.805,6.029,0.01,-0.019,0.006,101.0,100.0,100.0,13.4,1505.2,325.6,-0.8,1.8,2470.75,13.28,0.021,152.2
2022-03-27T05:37:03,42.805,6.029,0.066,-0.051,-0.035,100.0,101.0,100.0,13.4,1505.2,322.9,-0.8,1.8,2470.776,13.28,0.083,127.7
2022-03-27T05:40:03,42.805,6.029,0.036,-0.016,-0.004,100.0,100.0,101.0,13.4,1505.2,324.7,-0.7,1.8,2470.758,13.28,0.039,114.0
2022-03-27T05:43:03,42.805,6.029,0.043,-0.04,0.01,102.0,100.0,101.0,13.3,1505.2,329.0,-0.8,1.8,2470.75,13.28,0.058,132.9
2022-03-27T05:46:03,42.805,6.029,0.032,-0.029,-0.043,100.0,100.0,100.0,13.4,1505.2,326.3,-0.8,1.8,2470.765,13.28,0.043,132.2
2022-03-27T05:49:03,42.805,6.029,0.046,-0.044,-0.016,101.0,101.0,99.0,13.4,1505.2,330.2,-0.7,1.8,2470.779,13.28,0.063,133.7
2022-03-27T05:52:03,42.805,6.029,0.046,-0.042,-0.012,101.0,100.0,100.0,13.4,1505.2,330.4,-0.8,1.8,2470.741,13.28,0.062,132.4
2022-03-27T05:55:03,42.805,6.029,0.034,-0.044,-0.024,102.0,99.0,100.0,13.4,1505.2,324.1,-0.8,1.8,2470.768,13.28,0.055,142.3
2022-03-27T05:58:03,42.805,6.029,0.037,-0.028,-0.002,99.0,102.0,100.0,13.4,1505.2,325.3,-0.8,1.8,2470.793,13.28,0.046,127.1
2022-03-27T06:04:03,42.805,6.029,0.034,-0.044,-0.018,100.0,100.0,100.0,13.4,1505.2,323.4,-0.8,1.8,2470.802,13.28,0.055,142.3
2022-03-27T06:07:03,42.805,6.029,0.037,-0.035,0.0,101.0,99.0,100.0,13.4,1505.2,327.9,-0.8,1.8,2470.803,13.28,0.05,133.4
2022-03-27T06:10:03,42.805,6.029,0.03,-0.044,-0.016,101.0,99.0,101.0,13.4,1505.2,329.7,-0.8,1.8,2470.783,13.28,0.053,145.7
2022-03-27T06:13:03,42.805,6.029,0.031,-0.045,-0.01,101.0,101.0,100.0,13.4,1505.2,332.3,-0.8,1.8,2470.802,13.28,0.054,145.4
2022-03-27T06:16:03,42.805,6.029,0.022,-0.033,-0.016,101.0,100.0,99.0,13.4,1505.2,325.3,-0.8,1.9,2470.784,13.28,0.039,146.3
2022-03-27T06:19:03,42.805,6.029,0.014,-0.041,-0.033,102.0,103.0,99.0,13.4,1505.2,330.1,-0.7,1.8,2470.806,13.28,0.043,161.1
2022-03-27T06:22:03,42.805,6.029,0.033,-0.031,0.0,101.0,100.0,100.0,13.3,1505.2,325.6,-0.7,1.8,2470.77,13.28,0.045,133.2
2022-03-27T06:25:03,42.805,6.029,0.039,-0.03,-0.004,100.0,101.0,99.0,13.4,1505.2,329.7,-0.7,1.8,2470.797,13.28,0.049,127.6
2022-03-27T06:28:03,42.805,6.029,0.042,-0.051,-0.001,102.0,100.0,100.0,13.4,1505.2,324.4,-0.7,1.8,2470.758,13.28,0.066,140.5
2022-03-27T06:31:03,42.805,6.029,0.038,-0.042,-0.023,100.0,101.0,100.0,13.4,1505.2,326.8,-0.8,1.8,2470.75,13.28,0.056,137.9
2022-03-27T06:34:03,42.805,6.029,0.056,-0.043,-0.013,101.0,100.0,100.0,13.4,1505.2,326.8,-0.8,1.8,2470.744,13.28,0.07,127.5
2022-03-27T06:37:03,42.805,6.029,0.039,-0.035,-0.035,99.0,101.0,101.0,13.4,1505.2,326.2,-0.8,1.8,2470.773,13.28,0.052,131.9
2022-03-27T06:40:03,42.805,6.029,0.021,-0.033,-0.005,100.0,102.0,99.0,13.3,1505.2,327.8,-0.8,1.8,2470.759,13.28,0.039,147.5
2022-03-27T06:43:03,42.805,6.029,0.055,-0.025,0.003,100.0,102.0,101.0,13.3,1505.2,325.4,-0.7,1.8,2470.799,13.28,0.06,114.4
2022-03-27T06:46:03,42.805,6.029,0.013,-0.04,-0.012,102.0,101.0,100.0,13.4,1505.2,326.3,-0.7,1.8,2470.768,13.28,0.042,162.0
2022-03-27T06:49:03,42.805,6.029,0.023,-0.056,-0.032,100.0,101.0,100.0,13.4,1505.2,325.6,-0.8,1.8,2470.761,13.28,0.06,157.7
2022-03-27T06:52:03,42.805,6.029,0.012,-0.039,0.015,101.0,102.0,100.0,13.4,1505.2,325.9,-0.7,1.8,2470.76,13.28,0.04,162.9
2022-03-27T06:55:03,42.805,6.029,0.031,-0.032,-0.003,101.0,99.0,101.0,13.4,1505.2,329.3,-0.8,1.8,2470.718,13.28,0.044,135.9
2022-03-27T06:58:03,42.805,6.029,0.015,-0.041,-0.022,100.0,101.0,101.0,13.4,1505.2,331.9,-0.8,1.8,2470.718,13.28,0.043,159.9
2022-03-27T07:04:03,42.805,6.029,0.025,-0.055,-0.065,101.0,100.0,100.0,13.4,1505.2,323.9,-0.7,1.8,2470.755,13.28,0.06,155.6
2022-03-27T07:07:03,42.805,6.029,-0.006,-0.029,0.009,100.0,101.0,100.0,13.3,1505.2,327.0,-0.8,1.8,2470.797,13.28,0.029,191.7
2022-03-27T07:10:03,42.805,6.029,0.015,-0.025,-0.004,102.0,100.0,100.0,13.4,1505.2,327.0,-0.8,1.8,2470.767,13.28,0.029,149.0
2022-03-27T07:13:03,42.805,6.029,0.024,-0.035,-0.001,102.0,100.0,100.0,13.3,1505.2,324.2,-0.7,1.8,2470.726,13.28,0.042,145.6
2022-03-27T07:16:03,42.805,6.029,0.012,-0.018,0.025,100.0,102.0,100.0,13.3,1505.2,327.9,-0.8,1.8,2470.765,13.28,0.021,146.3
2022-03-27T07:19:03,42.805,6.029,0.008,-0.03,-0.03,99.0,101.0,100.0,13.4,1505.2,326.2,-0.8,1.8,2470.736,13.28,0.031,165.1
2022-03-27T07:22:03,42.805,6.029,0.017,-0.03,0.006,99.0,101.0,100.0,13.4,1505.2,330.2,-0.7,1.8,2470.728,13.28,0.034,150.5
2022-03-27T07:25:03,42.805,6.029,0.028,-0.019,-0.008,99.0,100.0,100.0,13.4,1505.2,323.4,-0.7,1.8,2470.72,13.28,0.033,124.2
2022-03-27T07:28:03,42.805,6.029,0.014,-0.023,0.013,100.0,100.0,100.0,13.4,1505.2,330.2,-0.8,1.8,2470.712,13.28,0.026,148.7
2022-03-27T07:31:03,42.805,6.029,0.012,-0.04,-0.007,100.0,100.0,101.0,13.4,1505.2,326.7,-0.8,1.9,2470.758,13.28,0.041,163.3
2022-03-27T07:34:03,42.805,6.029,0.006,-0.029,0.019,101.0,102.0,99.0,13.4,1505.2,329.6,-0.8,1.9,2470.741,13.28,0.029,168.3
2022-03-27T07:37:03,42.805,6.029,0.018,-0.019,0.006,101.0,101.0,99.0,13.4,1505.2,323.7,-0.8,1.8,2470.743,13.28,0.026,136.5
2022-03-27T07:40:03,42.805,6.029,0.011,-0.023,0.018,101.0,101.0,99.0,13.4,1505.2,331.7,-0.8,1.8,2470.727,13.28,0.025,154.4
2022-03-27T07:43:03,42.805,6.029,0.024,-0.026,0.008,101.0,102.0,99.0,13.4,1505.2,329.2,-0.8,1.8,2470.739,13.28,0.035,137.3
2022-03-27T07:46:03,42.805,6.029,-0.005,-0.024,-0.01,102.0,99.0,101.0,13.4,1505.2,332.1,-0.7,1.8,2470.72,13.28,0.024,191.8
2022-03-27T07:49:03,42.805,6.029,0.03,-0.032,-0.009,101.0,100.0,99.0,13.4,1505.2,322.9,-0.8,1.8,2470.7,13.28,0.043,136.9
2022-03-27T07:52:03,42.805,6.029,0.05,-0.056,-0.014,100.0,100.0,100.0,13.4,1505.2,325.0,-0.8,1.8,2470.743,13.28,0.075,138.2
2022-03-27T07:55:03,42.805,6.029,0.017,-0.02,-0.012,101.0,99.0,101.0,13.4,1505.2,327.2,-0.8,1.8,2470.688,13.28,0.026,139.6
2022-03-27T07:58:03,42.805,6.029,0.034,-0.036,0.006,101.0,100.0,100.0,13.4,1505.2,328.5,-0.8,1.9,2470.735,13.28,0.049,136.6
2022-03-27T08:01:03,42.805,6.029,0.016,-0.021,-0.019,100.0,101.0,100.0,13.3,1505.2,327.1,-0.8,1.8,2470.722,13.28,0.026,142.7
2022-03-27T08:04:03,42.805,6.029,0.026,-0.046,-0.011,101.0,101.0,101.0,13.3,1505.2,329.0,-0.7,1.8,2470.694,13.28,0.052,150.5
2022-03-27T08:07:03,42.805,6.029,0.033,-0.04,-0.004,101.0,101.0,100.0,13.3,1505.2,325.1,-0.8,1.8,2470.697,13.28,0.051,140.5
2022-03-27T08:10:03,42.805,6.029,0.035,-0.056,-0.019,100.0,100.0,100.0,13.3,1505.2,324.1,-0.7,1.8,2470.693,13.28,0.066,148.0
2022-03-27T08:13:03,42.805,6.029,0.031,-0.018,0.029,100.0,100.0,101.0,13.4,1505.2,328.3,-0.7,1.8,2470.706,13.28,0.035,120.1
2022-03-27T08:16:03,42.805,6.029,0.018,-0.017,0.035,100.0,102.0,100.0,13.4,1505.2,324.8,-0.7,1.8,2470.701,13.28,0.024,133.4
2022-03-27T08:19:03,42.805,6.029,0.016,-0.024,0.002,100.0,101.0,100.0,13.3,1505.2,324.4,-0.8,1.8,2470.679,13.28,0.028,146.3
2022-03-27T08:22:03,42.805,6.029,0.015,-0.031,-0.041,101.0,99.0,100.0,13.4,1505.2,328.5,-0.7,1.8,2470.723,13.28,0.034,154.2
2022-03-27T08:25:03,42.805,6.029,0.041,-0.037,-0.017,100.0,101.0,101.0,13.3,1505.2,323.1,-0.8,1.8,2470.698,13.28,0.055,132.1
2022-03-27T08:28:03,42.805,6.029,0.02,-0.049,-0.025,100.0,101.0,100.0,13.3,1505.2,328.1,-0.7,1.8,2470.707,13.28,0.052,157.8
2022-03-27T08:31:03,42.805,6.029,0.013,-0.025,0.016,100.0,103.0,100.0,13.3,1505.2,324.7,-0.8,1.8,2470.685,13.28,0.028,152.5
2022-03-27T08:34:03,42.805,6.029,0.027,-0.026,-0.018,102.0,100.0,99.0,13.3,1505.2,327.1,-0.7,1.8,2470.696,13.28,0.037,133.9
2022-03-27T08:37:03,42.805,6.029,0.029,-0.043,0.01,100.0,101.0,100.0,13.4,1505.2,325.4,-0.7,1.8,2470.654,13.28,0.051,146.0
2022-03-27T08:40:03,42.805,6.029,0.034,-0.027,-0.002,101.0,100.0,100.0,13.3,1505.2,327.2,-0.8,1.8,2470.703,13.28,0.043,128.5
2022-03-27T08:43:03,42.805,6.029,0.031,-0.021,0.006,100.0,100.0,100.0,13.4,1505.2,322.8,-0.7,1.8,2470.707,13.28,0.037,124.1
2022-03-27T08:46:03,42.805,6.029,0.022,-0.032,0.002,102.0,101.0,99.0,13.3,1505.2,323.6,-0.7,1.8,2470.689,13.28,0.038,145.5
2022-03-27T08:49:03,42.805,6.029,0.018,0.006,0.011,99.0,101.0,101.0,13.3,1505.2,325.6,-0.7,1.8,2470.701,13.28,0.018,71.6
2022-03-27T08:52:03,42.805,6.029,0.035,-0.022,0.017,100.0,101.0,99.0,13.4,1505.2,326.8,-0.8,1.8,2470.723,13.28,0.041,122.2
2022-03-27T08:55:03,42.805,6.029,0.015,-0.02,0.008,101.0,100.0,100.0,13.4,1505.2,322.1,-0.8,1.8,2470.681,13.28,0.025,143.1
2022-03-27T08:58:03,42.805,6.029,0.0,-0.023,0.0,101.0,99.0,101.0,13.4,1505.2,330.6,-0.7,1.8,2470.688,13.28,0.023,180.0
2022-03-27T09:04:03,42.805,6.029,0.032,-0.034,-0.011,101.0,101.0,100.0,13.3,1505.2,329.1,-0.8,1.8,2470.719,13.28,0.046,136.7
2022-03-27T09:07:03,42.805,6.029,0.043,-0.013,0.028,100.0,101.0,100.0,13.4,1505.2,330.2,-0.7,1.8,2470.698,13.28,0.044,106.8
2022-03-27T09:10:03,42.805,6.029,0.021,-0.015,0.052,100.0,101.0,100.0,13.3,1505.2,324.1,-0.8,1.8,2470.72,13.28,0.025,125.5
2022-03-27T09:13:03,42.805,6.029,0.018,-0.032,0.017,99.0,101.0,101.0,13.4,1505.2,325.2,-0.8,1.8,2470.654,13.28,0.036,150.6
2022-03-27T09:16:03,42.805,6.029,0.032,-0.02,0.013,99.0,103.0,100.0,13.4,1505.2,326.0,-0.7,1.8,2470.726,13.28,0.037,122.0
2022-03-27T09:19:03,42.805,6.029,0.045,-0.041,-0.006,99.0,101.0,100.0,13.3,1505.2,329.9,-0.7,1.8,2470.665,13.28,0.06,132.3
2022-03-27T09:22:03,42.805,6.029,0.001,-0.038,-0.032,100.0,101.0,101.0,13.4,1505.2,329.5,-0.7,1.8,2470.688,13.28,0.038,178.5
2022-03-27T09:25:03,42.805,6.029,0.035,-0.032,0.016,100.0,101.0,100.0,13.3,1505.2,325.8,-0.8,1.8,2470.67,13.28,0.047,132.4
2022-03-27T09:28:03,42.805,6.029,0.007,-0.001,0.023,101.0,100.0,100.0,13.4,1505.2,332.9,-0.8,1.8,2470.705,13.28,0.007,98.1
2022-03-27T09:31:03,42.805,6.029,0.001,-0.005,0.006,102.0,102.0,99.0,13.4,1505.2,327.6,-0.7,1.8,2470.622,13.28,0.005,168.7
2022-03-27T09:34:03,42.805,6.029,0.024,-0.009,0.003,99.0,100.0,101.0,13.3,1505.2,330.1,-0.7,1.8,2470.676,13.28,0.025,110.6
2022-03-27T09:37:03,42.805,6.029,0.012,-0.031,-0.025,101.0,100.0,101.0,13.3,1505.2,325.8,-0.8,1.8,2470.631,13.28,0.033,158.8
2022-03-27T09:40:03,42.805,6.029,0.022,-0.013,0.023,101.0,101.0,100.0,13.4,1505.2,328.4,-0.7,1.8,2470.661,13.28,0.025,120.6
2022-03-27T09:43:03,42.805,6.029,0.043,-0.002,0.009,101.0,102.0,99.0,13.4,1505.2,323.6,-0.8,1.9,2470.608,13.28,0.043,92.7
2022-03-27T09:46:03,42.805,6.029,0.064,-0.023,-0.006,100.0,101.0,100.0,13.4,1505.2,327.6,-0.8,1.8,2470.632,13.28,0.068,109.8
2022-03-27T09:49:03,42.805,6.029,0.002,-0.032,-0.008,101.0,101.0,102.0,13.4,1505.2,330.2,-0.7,1.8,2470.656,13.28,0.032,176.4
2022-03-27T09:52:03,42.805,6.029,0.02,-0.001,-0.001,101.0,102.0,100.0,13.3,1505.2,327.3,-0.8,1.8,2470.644,13.28,0.02,92.9